Location: �terpigny
(49.8910°N, 2.9249°E)
Time: 05:02:45
(UTC+00:00)

Cosmos 1908 - Pass Details

Date: 03 June 2022
Orbit: 505 x 523 km, 82.5° (Epoch: 03 July)

Event Time Altitude Azimuth Distance (km) Brightness Sun altitude
Rises 23:02:47 0° 347° (NNW) 2,622 8.6 -17.1°
Reaches altitude 10° 23:04:56 10° 344° (NNW) 1,732 7.2 -17.1°
Maximum altitude 23:08:41 63° 264° (W) 574 3.3 -17.2°
Enters shadow 23:09:56 38° 199° (SSW) 792 3.7 -17.2°
